This demonstration page uses our WeatherBlox Daily Observations layout. Learn more.

Left ArrowRight Arrow

36.17497, -115.13722

Hourly Observations for September 21, 2017

Temp ( °F °C ) Dew Point ( °F °C ) Humidity (%) Winds ( mph kmh ) Pressure ( in mb ) Visibility ( mi km ) Precip ( " mm )
12:53 am 00:53 Clear 77 25 41 5 28 28 SSW 22 35 29.60 1002 10 16 0.00 0.00
1:53 am 01:53 Clear 76 24.4 42 5.6 30 30 SSW 26 43 29.58 1002 10 16 0.00 0.00
2:53 am 02:53 Clear 75 23.9 42 5.6 31 31 SSW 24 39 29.57 1001 10 16 0.00 0.00
3:53 am 03:53 Clear 73 22.8 42 5.6 33 33 SSW 20 31 29.58 1002 10 16 0.00 0.00
4:53 am 04:53 Clear 73 22.8 42 5.6 33 33 SSW 20 31 29.58 1002 10 16 0.00 0.00
5:53 am 05:53 Clear 72 22.2 42 5.6 34 34 SSW 20 31 29.62 1003 10 16 0.00 0.00
6:53 am 06:53 Sunny 72 22.2 42 5.6 34 34 S 17 28 29.64 1004 10 16 0.00 0.00
7:53 am 07:53 Sunny 73 22.8 41 5 32 32 SSW 15 24 29.65 1004 10 16 0.00 0.00
8:53 am 08:53 Sunny 76 24.4 41 5 29 29 SSW 18 30 29.65 1004 10 16 0.00 0.00
9:53 am 09:53 Sunny 77 25 41 5 28 28 SSW 20 31 29.67 1005 10 16 0.00 0.00
10:53 am 10:53 Sunny 80 26.7 40 4.4 24 24 SW 22 35 29.65 1004 10 16 0.00 0.00
11:53 am 11:53 Sunny 81 27.2 40 4.4 23 23 SSW 21 33 29.63 1003 10 16 0.00 0.00
12:53 pm 12:53 Sunny 83 28.3 40 4.4 22 22 WSW 18 30 29.62 1003 10 16 0.00 0.00
1:10 pm 13:10 Sunny 82 27.8 39 3.9 22 22 WSW 22 35 29.50 999 10 16 0.00 0.00
1:53 pm 13:53 Sunny 81 27.2 42 5.6 25 25 WSW 22 35 29.61 1003 10 16 0.00 0.00
2:53 pm 14:53 Sunny 82 27.8 42 5.6 24 24 WSW 18 30 29.60 1002 10 16 0.00 0.00
3:53 pm 15:53 Sunny 78 25.6 44 6.7 30 30 SW 28 44 29.60 1002 10 16 0.00 0.00
4:53 pm 16:53 Sunny 78 25.6 44 6.7 30 30 WSW 18 30 29.60 1002 10 16 0.00 0.00
5:53 pm 17:53 Sunny 76 24.4 42 5.6 30 30 WSW 22 35 29.61 1003 10 16 0.00 0.00
6:53 pm 18:53 Clear 74 23.3 37 2.8 26 26 SW 14 22 29.63 1003 10 16 0.00 0.00
7:53 pm 19:53 Clear 72 22.2 31 -0.6 22 22 SW 16 26 29.64 1004 10 16 0.00 0.00
8:53 pm 20:53 Clear 70 21.1 25 -3.9 18 18 WSW 9 15 29.67 1005 10 16 0.00 0.00
9:53 pm 21:53 Clear 69 20.6 19 -7.2 15 15 SW 20 31 29.67 1005 10 16 0.00 0.00
10:25 pm 22:25 Clear 68 20 28 -2.2 22 22 NW 26 43 29.62 1003 10 16 0.00 0.00
10:53 pm 22:53 Clear 67 19.4 30 -1.1 25 25 NW 17 28 29.69 1006 10 16 0.00 0.00
11:53 pm 23:53 Clear 65 18.3 31 -0.6 28 28 NW 15 24 29.72 1007 10 16 0.00 0.00

Powered by AerisWeather